Theta_e
345 345 343 341 342 343 344 344 342 343 346 344 343 345 346 346 347 345 345 345 343 345 346 345 344 343 345 345 344 345 345 346 346 347 344 346 344 345 344 346 346 346 344
345 346 343 342 343 344 344 344 344 345 345 342 344 347 346 347 347 346 345 346 344 344 346 344 342 345 345 346 344 345 345 346 345 346 346 345 347 345 346 347 344 340 338
346 346 343 340 344 343 342 343 344 344 344 344 343 343 345 345 345 344 345 342 345 344 345 346 345 344 344 343 346 346 344 345 346 345 344 344 345 343 344 343 341 339 340
346 346 346 342 341 342 344 344 344 346 345 346 346 344 345 345 344 345 345 345 345 345 344 345 344 343 343 344 346 345 344 344 344 344 344 340 340 339 338 338 340 340 345
343 344 346 345 343 344 346 344 343 343 345 345 344 345 346 346 343 344 346 346 345 344 346 344 344 343 344 345 345 344 345 344 342 340 339 339 339 340 341 341 340 342 344
346 345 345 345 343 341 344 345 344 345 345 344 346 346 346 344 345 346 344 345 344 346 346 345 343 342 344 343 342 343 344 345 344 343 337 338 339 340 340 340 342 342 344
345 344 344 343 343 342 343 342 343 345 345 343 348 347 346 344 345 345 344 345 345 346 344 344 343 345 344 343 343 343 344 343 340 338 341 339 340 341 341 340 342 344 344
343 344 343 343 343 340 341 342 342 345 344 344 344 344 344 345 344 343 344 343 343 343 344 344 344 343 343 343 341 342 341 339 339 339 339 340 341 340 340 343 344 344 342
342 341 340 340 341 340 339 337 338 339 338 337 338 338 338 340 343 342 342 343 342 343 342 344 342 340 341 340 341 341 342 341 340 339 338 338 339 340 341 342 342 338 335
342 341 340 338 337 337 338 335 336 337 336 336 335 335 337 336 340 341 341 342 343 341 340 341 341 339 339 339 340 341 341 340 337 336 337 337 337 337 336 335 333 332 331
341 338 336 339 339 338 337 337 335 334 334 336 335 336 341 341 341 342 342 340 340 341 341 339 340 340 340 339 338 336 334 333 333 332 332 332 331 331 331 331 329 327 325
339 339 338 338 338 339 338 338 338 338 338 339 339 339 339 339 340 340 340 338 337 336 337 337 338 335 330 327 325 326 330 331 329 328 328 328 327 327 326 324 321 319 318
335 334 334 334 334 333 334 335 336 336 337 337 336 335 335 335 335 338 339 338 339 338 338 336 335 334 333 323 322 323 325 326 325 324 323 321 321 321 321 320 318 314 311
332 333 332 334 331 333 332 332 332 333 333 332 332 331 331 331 331 331 332 332 333 333 332 328 325 322 321 322 322 323 323 321 321 320 319 318 317 314 311 308 306 305 305
330 330 331 332 331 331 331 331 331 330 329 328 328 326 323 325 327 328 329 329 329 328 325 322 322 322 321 321 320 320 319 318 316 314 313 311 308 305 303 303 303 303 303
322 322 322 323 325 326 327 328 328 328 328 327 326 319 316 313 309 304 305 309 314 318 321 320 321 321 319 318 317 317 314 313 312 306 303 303 302 302 302 302 302 302 302
313 311 310 309 310 313 319 323 325 324 324 323 322 320 317 311 305 306 311 313 316 317 320 319 319 318 318 316 315 315 314 312 309 304 303 302 302 301 301 301 301 301 301
311 311 310 308 307 305 307 310 310 309 308 308 308 305 305 303 307 311 313 314 315 317 318 318 317 316 314 310 306 303 302 301 301 301 301 301 301 300 300 300 300 300 299
310 311 312 312 311 310 308 306 305 302 302 302 302 302 303 304 305 306 308 308 308 308 308 307 306 304 302 301 300 300 300 300 300 300 300 300 300 300 299 299 298 298 298
311 311 311 311 311 311 311 311 310 310 311 310 307 304 304 305 305 304 304 306 309 308 303 302 301 301 300 300 300 299 299 299 299 299 299 299 298 298 297 297 297 297 297
314 313 312 311 311 310 311 311 310 309 310 308 305 305 305 304 304 303 304 304 304 304 304 304 305 305 303 301 299 299 298 298 297 297 297 297 297 297 296 296 296 296 297
316 313 312 311 310 310 310 310 309 308 309 310 308 307 307 307 307 306 305 305 305 304 304 303 302 301 301 301 301 300 300 299 298 297 296 296 295 296 295 295 295 295 296
317 314 312 311 309 309 307 308 307 308 308 309 309 308 308 308 308 307 306 305 305 305 305 304 303 304 303 303 302 301 301 300 299 298 296 295 295 294 294 294 294 294 296
317 314 311 308 306 307 310 309 307 307 307 307 308 308 308 308 308 308 307 306 305 306 306 305 305 305 304 303 302 302 302 301 299 298 297 296 296 295 294 294 294 294 295
318 315 310 309 309 309 311 311 307 308 308 308 308 308 308 308 308 308 307 306 306 305 306 306 306 306 305 304 303 303 302 302 301 299 298 298 297 297 296 294 293 293 293
317 317 317 314 314 310 311 312 311 308 309 308 308 308 308 308 308 308 307 306 305 305 305 305 306 306 306 306 304 303 303 303 303 302 300 300 300 299 298 297 295 293 293
Wind_Speed
19 18 20 23 22 20 17 18 18 16 18 16 15 16 19 17 17 14 14 12 10 12 12 12 12 11 10 8 7 6 6 5 3 3 1 3 3 2 1 2 4 8 10
19 17 17 20 21 21 20 17 18 17 16 17 18 15 14 20 19 18 15 12 11 13 11 10 7 7 7 6 5 6 8 8 6 7 4 2 1 2 3 3 9 11 11
22 19 17 18 19 18 18 16 16 15 15 17 19 17 18 17 18 17 16 14 13 11 14 12 9 9 9 7 7 7 6 6 6 6 7 6 5 6 9 12 10 8 7
21 24 21 18 18 17 17 16 16 16 16 18 18 16 16 17 17 18 17 17 16 16 15 17 13 12 12 11 10 8 5 5 6 6 7 7 7 7 8 8 6 4 2
25 26 22 18 18 18 18 17 15 15 13 13 16 16 17 19 19 20 21 21 20 20 18 18 16 12 14 11 11 9 9 9 6 5 5 5 5 5 5 5 4 2 1
27 23 24 20 19 18 18 17 16 16 16 13 13 15 17 20 22 22 21 21 20 21 21 19 20 19 15 12 12 11 10 8 8 7 6 6 6 6 6 6 5 1 2
27 29 25 25 20 19 18 21 19 17 16 16 16 16 17 18 21 24 24 22 22 22 21 22 19 16 16 14 12 12 11 10 9 9 10 10 10 10 9 7 3 2 1
14 17 18 24 24 17 18 14 21 19 16 14 15 15 17 18 19 21 22 23 22 20 20 18 18 16 15 15 13 13 13 12 12 13 14 13 10 8 4 3 2 2 2
16 15 12 15 16 22 13 9 8 7 8 9 11 14 14 17 20 18 15 20 19 16 13 19 17 12 14 15 14 13 13 13 12 11 8 4 2 1 2 2 1 2 3
11 11 12 12 16 19 22 24 23 19 17 15 16 18 20 23 23 26 23 9 15 12 11 13 16 16 19 17 16 15 13 11 8 6 4 2 1 1 2 2 2 3 3
7 11 12 14 14 20 13 12 16 25 22 19 22 25 19 20 24 28 32 27 12 12 13 11 14 16 16 14 13 11 10 9 10 8 7 5 4 4 4 5 5 6 7
8 11 12 13 14 14 15 13 10 11 12 14 12 12 13 13 15 21 24 28 26 23 18 17 15 13 10 9 9 11 11 12 11 10 8 7 6 6 6 6 7 8 8
7 6 6 4 2 2 3 2 2 2 3 4 4 4 5 7 5 15 17 17 18 19 18 16 19 21 18 11 11 12 12 10 8 8 8 6 4 4 5 7 8 9 10
5 5 6 8 4 6 6 6 5 4 4 3 3 2 0 1 2 3 5 11 16 19 20 18 17 14 12 12 11 9 7 5 5 5 4 3 3 3 5 7 8 8 9
6 5 6 7 5 5 6 6 6 7 5 4 5 3 3 2 1 2 4 4 3 5 10 12 12 10 10 11 8 6 3 0 2 4 5 6 7 7 7 7 7 9 10
6 7 6 5 4 3 3 3 4 7 7 7 5 4 2 2 2 1 0 0 1 2 8 13 17 12 9 8 5 6 8 8 8 9 9 9 9 9 9 9 9 9 10
8 8 7 5 6 6 6 6 3 3 3 1 2 3 3 4 5 5 7 6 5 4 9 10 7 9 11 9 12 10 10 8 8 9 11 11 10 9 9 9 9 9 10
5 5 5 6 6 5 5 5 5 5 3 4 3 4 5 5 7 9 12 9 8 7 6 8 8 7 6 5 5 3 3 2 2 3 3 3 5 6 8 9 11 13 13
4 4 4 3 5 5 5 6 6 6 8 6 8 8 9 9 10 8 9 8 7 5 3 3 3 3 2 1 1 1 1 1 3 3 4 4 4 5 6 7 9 11 13
3 5 4 4 4 3 5 3 4 2 1 2 4 5 7 9 9 7 6 6 5 4 2 2 2 2 2 1 1 2 2 3 3 4 5 5 5 7 8 9 12 14 15
6 8 7 6 3 5 4 4 2 2 3 2 5 6 5 3 2 2 1 1 1 3 5 7 10 11 6 5 3 2 5 5 5 6 7 7 7 8 10 12 13 14 14
10 11 11 9 7 7 7 7 6 6 7 6 5 4 4 3 3 3 2 3 3 4 4 4 5 5 3 1 1 1 1 2 4 5 6 7 8 8 9 12 14 15 14
13 14 15 13 12 11 10 10 8 9 6 8 7 5 8 6 5 4 4 3 4 4 5 5 7 7 7 6 5 5 5 4 4 5 6 6 7 9 10 11 12 13 12
14 15 14 13 13 12 10 10 10 6 7 7 6 9 11 10 10 10 9 8 7 5 4 5 6 5 3 3 4 4 6 8 7 7 7 7 8 9 11 12 12 12 11
15 16 17 16 15 14 12 10 10 11 7 8 8 8 8 11 13 15 15 14 13 12 8 6 6 5 4 2 2 1 2 5 6 6 7 8 9 12 13 13 14 13 12
16 17 19 20 18 18 18 18 18 12 12 10 12 11 9 8 9 12 16 17 18 18 16 13 11 10 10 8 7 9 8 5 6 6 7 8 9 12 14 16 17 16 15
Wind_Direction
225 231 230 232 233 237 242 243 241 248 246 237 243 247 242 244 248 252 243 239 256 251 257 270 279 269 259 269 273 273 261 251 179 136 37 28 51 5 322 2 354 351 343
221 230 237 232 233 236 241 243 247 247 245 240 246 252 246 243 245 248 247 237 263 249 255 252 269 256 244 253 280 263 251 245 236 215 208 270 4 49 10 306 328 326 323
221 225 232 234 234 235 233 246 243 245 250 239 241 250 256 241 245 246 239 251 259 267 241 246 246 250 257 258 276 265 258 245 234 237 252 249 264 295 306 314 319 327 313
226 229 230 237 237 237 237 236 240 246 251 250 242 247 248 249 249 241 245 246 250 265 257 246 251 261 262 264 267 256 269 266 261 251 251 253 258 283 302 306 314 327 342
222 228 227 237 238 234 233 240 234 232 244 257 257 248 251 253 251 247 247 251 255 258 259 246 247 247 255 249 266 261 277 270 262 254 244 247 256 268 277 288 310 324 40
230 224 221 236 234 246 242 238 233 237 243 251 260 258 258 258 253 249 248 250 254 253 253 252 254 250 261 251 256 261 264 264 264 260 270 280 270 267 273 296 306 294 178
227 227 237 231 253 244 252 244 240 239 244 247 254 262 265 269 271 258 249 252 250 251 255 259 254 248 252 257 259 254 254 260 261 269 283 285 285 285 288 288 263 253 145
218 222 238 242 238 234 254 242 235 237 251 259 271 271 273 281 282 279 265 256 249 252 256 248 249 257 259 254 260 250 254 266 276 284 286 287 283 275 257 235 215 228 242
247 235 235 219 229 225 220 226 227 234 264 272 282 291 295 286 275 280 287 260 245 251 255 236 239 242 261 255 252 247 257 267 275 280 281 286 291 202 227 243 230 213 232
204 202 240 232 234 236 238 257 253 260 271 273 277 283 294 288 278 270 263 252 244 240 249 241 227 245 253 250 251 256 256 257 252 236 223 210 176 132 150 193 225 269 276
161 179 223 250 240 239 255 245 255 262 263 271 273 280 271 258 259 259 258 239 236 239 231 235 231 235 238 239 232 235 237 215 196 203 203 210 229 253 260 271 282 291 299
180 191 216 225 238 247 249 253 248 249 249 250 249 255 263 256 242 242 254 241 243 252 248 231 219 218 218 217 218 214 212 201 203 214 227 241 250 262 275 289 297 302 306
168 187 183 197 195 236 254 235 174 162 180 197 210 220 239 260 263 229 225 229 226 211 207 218 241 247 233 202 200 193 191 194 219 239 253 247 248 273 294 298 301 304 303
147 144 132 146 98 130 124 121 126 136 142 147 141 128 138 256 309 343 250 232 215 207 212 206 193 186 183 181 170 178 192 201 228 240 234 257 276 277 270 277 286 291 293
139 145 154 161 163 189 192 196 166 154 142 145 138 129 133 135 197 262 263 249 231 216 208 176 151 160 162 152 150 150 157 123 308 308 307 305 297 292 297 297 298 304 312
119 119 124 129 145 168 174 184 171 167 178 176 168 152 123 88 28 16 75 197 120 127 180 184 163 170 184 173 196 255 292 314 325 325 318 313 313 314 320 326 329 331 329
117 113 112 133 144 155 155 143 141 117 104 86 87 100 48 14 31 61 84 101 117 164 184 182 202 184 183 213 247 245 248 258 277 263 267 287 308 326 334 336 342 350 349
130 127 126 119 108 119 151 157 161 166 173 190 166 108 93 81 88 85 76 61 86 114 161 181 179 185 207 222 234 245 269 267 262 272 287 317 332 339 349 355 357 358 0
137 132 130 128 114 111 112 112 103 107 106 104 106 115 118 128 137 128 100 94 75 74 112 153 169 179 192 215 196 296 40 1 351 350 343 338 344 347 354 3 7 9 8
234 195 191 172 169 171 180 173 127 147 153 145 154 139 138 155 162 164 181 193 261 291 300 48 46 44 85 83 23 0 347 353 348 356 2 2 4 11 9 10 8 2 360
262 245 233 222 255 217 204 195 210 332 214 143 150 140 134 156 227 251 312 304 291 222 247 259 272 272 287 313 319 339 338 334 338 351 351 350 354 355 354 358 358 358 360
261 239 236 241 238 224 236 246 247 258 256 202 180 208 181 160 157 191 196 173 161 169 194 205 208 195 180 134 79 16 327 315 339 347 346 340 335 338 347 355 358 357 357
256 241 230 235 228 229 235 234 237 216 215 197 223 248 230 240 249 240 218 188 145 118 133 140 140 120 107 88 71 61 48 33 28 24 17 5 352 347 348 350 350 351 351
252 244 240 238 234 236 247 255 243 232 237 228 226 241 244 253 258 253 243 227 208 182 157 162 156 150 132 74 71 75 53 44 36 29 23 18 9 1 358 352 347 346 340
251 245 240 241 242 243 242 248 252 234 241 238 250 254 250 248 250 241 238 234 225 219 211 204 207 217 227 245 245 312 19 14 11 10 11 10 9 9 6 357 351 341 329
251 252 248 246 246 241 239 253 249 227 256 263 263 258 248 243 255 258 246 242 238 233 232 231 233 241 237 248 261 264 266 285 316 317 322 335 350 357 358 356 352 344 332